sat.trackr.live / text

‹ back to catalog

STARLINK-31686

NORAD 59579 · 2024-076R

PAYLOAD ACTIVE UNKNOWN

§ Identity

Operator
Country
US
Launch date
2024-04-23
Launch site
AFETR
Launch vehicle
Mass (kg)
RCS (m²)

Purposes: comms

External: N2YO · Heavens-Above · Gunter

§ Orbital elements

Epoch: 2026-05-25T02:37:23.674656Z

Period
94.27 min
Inclination
43.0014°
Eccentricity
0.0000962
Mean motion
15.27577431 rev/d
Perigee alt
482.4 km
Apogee alt
483.7 km
Semi-major
6,861.2 km
B*
4.2786e-5
RAAN
297.1092°
Arg perigee
268.9566°
Mean anomaly
91.1175°
Rev number
11,819

§ Raw data

STARLINK-316861 59579U 24076R   26145.10930179  .00000915  00000+0  42786-4 0  99972 59579  43.0014 297.1092 0000962 268.9566  91.1175 15.27577431118194

JSON: /api/v1/satellites/59579 · /tle

For live sub-satellite position, see the globe view (requires WebGL).

§ Visibility from observer

Set your observer location to see the next 7 days of passes ≥ 10°. The values pass through the URL so the page stays shareable.

No JS? Fill the form by hand. The geolocation button needs JavaScript.